Location: Ernsee
(50.8780°N, 12.0389°E)
Time: 13:36:53
(UTC+00:00)

Meteor 1-21 Rocket - Pass Details

Date: 20 January 2020
Orbit: 834 x 906 km, 81.2° (Epoch: 27 February)

Event Time Altitude Azimuth Distance (km) Brightness Sun altitude
Exits shadow 04:51:56 - 344° (NNW) 3,307 7.1 -20.3°
Reaches altitude 10° 04:53:53 10° 342° (NNW) 2,568 6.5 -20.0°
Maximum altitude 04:59:39 63° 263° (W) 1,004 4.3 -19.1°
Drops below altitude 10° 05:05:27 10° 184° (S) 2,580 6.8 -18.2°
Sets 05:07:56 0° 181° (S) 3,520 7.5 -17.8°
